sat.trackr.live / text

‹ back to catalog

ONEWEB-0113

NORAD 48050 · 2021-025J

PAYLOAD ACTIVE UNKNOWN

§ Identity

Operator
Country
UK
Launch date
2021-03-25
Launch site
VOSTO
Launch vehicle
Mass (kg)
RCS (m²)

Purposes: comms

External: N2YO · Heavens-Above · Gunter

§ Orbital elements

Epoch: 2026-05-25T00:25:04.243872Z

Period
109.60 min
Inclination
87.8946°
Eccentricity
0.0001838
Mean motion
13.13895618 rev/d
Perigee alt
1,206.7 km
Apogee alt
1,209.5 km
Semi-major
7,586.3 km
B*
6.1386e-4
RAAN
324.7553°
Arg perigee
91.7054°
Mean anomaly
268.4286°
Rev number
25,056

§ Raw data

ONEWEB-01131 48050U 21025J   26145.01741023  .00000238  00000+0  61386-3 0  99922 48050  87.8946 324.7553 0001838  91.7054 268.4286 13.13895618250565

JSON: /api/v1/satellites/48050 · /tle

For live sub-satellite position, see the globe view (requires WebGL).

§ Visibility from observer

Set your observer location to see the next 7 days of passes ≥ 10°. The values pass through the URL so the page stays shareable.

No JS? Fill the form by hand. The geolocation button needs JavaScript.